PST,Max TemperatureF,Mean TemperatureF,Min TemperatureF,Max Dew PointF,MeanDew PointF,Min DewpointF,Max Humidity, Mean Humidity, Min Humidity, Max Sea Level PressureIn, Mean Sea Level PressureIn, Min Sea Level PressureIn, Max VisibilityMiles, Mean VisibilityMiles, Min VisibilityMiles, Max Wind SpeedMPH, Mean Wind SpeedMPH, Max Gust SpeedMPH,PrecipitationIn, CloudCover, Events, WindDirDegrees
2012-11-1,68,60,53,59,57,54,100,87,68,30.05,30.00,29.96,10,8,4,9,2,,0.00,5,,182
2012-11-2,70,60,51,60,56,52,100,85,63,30.03,29.99,29.93,10,9,6,9,3,,0.00,3,,47
2012-11-3,77,62,49,63,56,50,100,89,52,30.06,30.02,29.98,10,7,1,7,2,,0.00,0,,303
2012-11-4,92,70,50,58,49,30,100,76,11,30.08,30.04,30.00,10,5,0,10,3,,0.00,0,Fog,337
2012-11-5,88,71,54,56,45,35,86,48,15,30.07,30.03,29.98,10,10,10,10,3,,0.00,0,,56
2012-11-6,77,65,53,65,56,43,100,80,30,30.10,30.05,30.01,10,9,7,10,3,,0.00,2,,161
2012-11-7,70,62,55,63,60,56,100,93,72,30.08,30.02,29.97,10,8,3,10,3,,0.00,4,,196
2012-11-8,68,64,59,63,59,53,100,91,76,30.06,29.95,29.89,10,10,7,13,6,,0.04,7,Rain,226
2012-11-9,64,58,49,53,46,39,96,66,41,29.95,29.92,29.88,10,10,10,17,9,26,0.00,3,,250
2012-11-10,64,52,41,47,37,28,99,59,27,30.17,30.06,29.96,10,10,10,20,6,30,0.00,0,,290
2012-11-11,65,54,43,39,32,24,72,44,20,30.31,30.26,30.17,10,10,10,10,5,,0.00,0,,5
2012-11-12,75,59,43,41,25,6,70,35,7,30.26,30.18,30.10,10,10,10,14,6,,0.00,0,,341
2012-11-13,80,60,40,46,34,17,84,47,9,30.12,30.06,30.00,10,10,10,10,2,,0.00,0,,337
2012-11-14,73,59,45,60,51,39,100,84,33,30.08,30.04,29.99,10,5,0,8,3,,0.00,4,Fog,189
2012-11-15,66,58,51,62,55,50,100,96,56,30.12,30.07,30.02,10,4,0,7,3,,0.00,7,Fog-Rain,43
2012-11-16,71,64,56,63,57,47,100,88,44,30.13,30.08,30.03,10,10,7,9,4,,0.02,7,Rain,69
2012-11-17,68,64,60,65,62,54,100,91,60,30.12,30.08,30.05,10,10,10,10,6,,0.00,7,,144
2012-11-18,70,62,53,64,58,53,100,88,65,30.20,30.13,30.08,10,8,1,10,2,,0.00,3,,255
2012-11-19,69,59,49,60,55,50,100,91,64,30.26,30.20,30.16,10,9,2,13,2,,0.00,0,,329
2012-11-20,71,58,46,60,51,46,100,96,55,30.17,30.13,30.05,10,4,0,10,1,,0.00,0,Fog,356
2012-11-21,65,58,51,61,57,52,100,98,81,30.13,30.07,30.03,10,7,2,8,4,,0.00,6,,89
2012-11-22,68,59,50,61,55,50,100,98,74,30.14,30.10,30.05,10,5,0,9,2,,0.00,3,Fog,40
2012-11-23,68,59,50,65,55,50,100,99,82,30.17,30.12,30.07,8,2,0,9,2,,0.00,3,Fog,265
2012-11-24,77,64,50,61,54,46,100,88,36,30.10,30.02,29.94,10,5,0,9,3,,0.00,2,Fog,241
2012-11-25,64,60,55,63,54,32,100,88,41,29.99,29.95,29.90,10,4,0,9,3,,0.00,7,Fog,123
2012-11-26,64,58,49,59,56,50,100,94,73,30.12,30.06,29.99,10,9,2,8,4,,0.00,4,,114
2012-11-27,66,56,46,60,53,46,100,97,77,30.18,30.12,30.06,10,6,0,13,3,,0.00,4,Fog,39
2012-11-28,66,60,54,61,59,55,100,92,72,30.22,30.17,30.12,10,8,3,10,4,,0.00,7,Rain,153
2012-11-29,63,60,57,64,60,57,100,100,100,30.24,30.18,30.15,10,4,1,7,4,,0.23,8,Rain,88
2012-11-30,64,62,57,64,53,32,100,80,34,30.16,30.13,30.09,10,3,0,10,3,,0.26,8,Fog-Rain,146